Home > Time Zones > World Clock > Weather > Iran > Tabriz > Past weeks

Flag for Iran Weather past 2 weeks in Tabriz, Iran

Now
59 °F

Scattered clouds.


Feels Like: 59 °F
Forecast: 45 / 62 °F
Wind: No wind

Location: Tabriz Airport

Current Time: Mar 29, 2015 at 6:48:24 PM

Latest Report: Mar 29, 2015 at 6:30 PM


Visibility: N/A

Pressure: 30.01 "Hg

Humidity: 42%

Dew point: 36 °F

Location of TabrizLocation

Historic Weather in Tabriz — Graph

°F

Tabriz temperature yesterday

Maximum temperature yesterday: 57 °F (at 3:30 PM)
Minimum temperature yesterday: 36 °F (at 6:30 AM)
Average temperature yesterday: 47 °F

Past Weeks' High & Low Weather Summary

 TemperatureHumidityPressure
High61 °F (Mar 14, 4:30 PM)93% (Mar 22, 11:00 AM)30.33 "Hg (Mar 22, 11:00 AM)
Low27 °F (Mar 19, 7:00 AM)25% (Mar 14, 4:30 PM)29.77 "Hg (Mar 22, 3:00 PM)
Average45 °F60%30.07 "Hg
* Reported Mar 14 4:30 PM — Mar 29 5:30 PM, Tabriz, Weather by CustomWeather, © 2015

Note: Actual official high and low records may vary slightly from our data, if they occured in-between our weather recording intervals... More about our weather records

Advertising

Tabriz weather history for previous 24 hours

 ConditionsComfort  
Time TempWeatherWind HumidityBarometerVisibility
5:30 PM
Sun, Mar 29
59 °FScattered clouds.5 mph42%30.04 "HgN/A
5:00 PM59 °FScattered clouds.7 mph42%30.04 "HgN/A
4:30 PM59 °FScattered clouds.9 mph42%30.04 "HgN/A
4:00 PM59 °FBroken clouds.7 mph42%30.04 "HgN/A
3:30 PM57 °FMore clouds than sun.5 mph41%30.07 "HgN/A
3:00 PM55 °FMore clouds than sun.12 mph47%30.07 "HgN/A
2:30 PM55 °FMore clouds than sun.7 mph47%30.07 "HgN/A
2:00 PM55 °FMore clouds than sun.7 mph47%30.09 "HgN/A
1:30 PM54 °FMore clouds than sun.No wind51%30.07 "HgN/A
1:00 PM54 °FMore clouds than sun.2 mph51%30.07 "HgN/A
12:30 PM52 °FSprinkles. More clouds than sun.9 mph58%30.12 "Hg5 mi
12:00 PM52 °FSprinkles. More clouds than sun.9 mph54%30.12 "Hg4 mi
11:30 AM54 °FMore clouds than sun.5 mph51%30.12 "Hg4 mi
11:00 AM52 °FMore clouds than sun.7 mph54%30.12 "Hg4 mi
10:30 AM50 °FMore clouds than sun.No wind58%30.12 "Hg4 mi
10:00 AM48 °FMore clouds than sun.5 mph62%30.12 "Hg4 mi
9:30 AM48 °FMore clouds than sun.5 mph66%30.12 "Hg4 mi
9:00 AM46 °FMore clouds than sun.5 mph71%30.12 "Hg4 mi
8:30 AM45 °FMostly cloudy.No wind76%30.09 "Hg4 mi
8:00 AM45 °FMostly cloudy.No wind71%30.09 "Hg4 mi
7:30 AM45 °FPassing clouds.5 mph71%30.09 "Hg5 mi
7:00 AM45 °FPassing clouds.5 mph71%30.09 "HgN/A
6:30 AM48 °FPassing clouds.5 mph58%30.07 "HgN/A
6:00 AM46 °FPassing clouds.5 mph62%30.07 "HgN/A
5:30 AM45 °FPassing clouds.7 mph61%30.07 "HgN/A
5:00 AM45 °FPassing clouds.5 mph61%30.07 "HgN/A
4:30 AM45 °FPassing clouds.5 mph66%30.07 "HgN/A
4:00 AM45 °FPassing clouds.5 mph66%30.07 "HgN/A
3:30 AM45 °FPassing clouds.5 mph61%30.07 "HgN/A
3:00 AM45 °FPassing clouds.5 mph61%30.09 "HgN/A
2:30 AM45 °FPassing clouds.7 mph61%30.12 "HgN/A
2:00 AM46 °FPassing clouds.5 mph53%30.12 "HgN/A
1:30 AM48 °FPassing clouds.5 mph54%30.12 "HgN/A
1:00 AM46 °FPassing clouds.7 mph57%30.12 "HgN/A
12:30 AM48 °FPassing clouds.9 mph58%30.12 "HgN/A
12:00 AM48 °FPassing clouds.12 mph58%30.12 "HgN/A
11:30 PM
Sat, Mar 28
46 °FPassing clouds.2 mph62%30.12 "HgN/A
11:00 PM45 °FPassing clouds.5 mph71%30.12 "HgN/A
10:30 PM52 °FPassing clouds.5 mph54%30.12 "HgN/A
10:00 PM52 °FPassing clouds.7 mph50%30.12 "HgN/A
9:30 PM52 °FPassing clouds.5 mph50%30.12 "HgN/A
9:00 PM50 °FPartly sunny.2 mph58%30.12 "HgN/A
8:30 PM50 °FPartly sunny.2 mph58%30.12 "HgN/A
8:00 PM52 °FPartly sunny.5 mph54%30.12 "HgN/A
7:30 PM54 °FPartly sunny.5 mph51%30.12 "Hg5 mi
7:00 PM55 °FPartly sunny.No wind47%30.12 "Hg5 mi
6:30 PM55 °FPartly sunny.2 mph44%30.12 "Hg5 mi
6:00 PM55 °FPartly sunny.2 mph44%30.12 "Hg5 mi
Weather by CustomWeather, © 2015

See weather overviewHow to use our weather pages